SCP
0 0 0 0 0 0 0 0 0 0 0 0 0 0 0 0 0 0 0 0 0 0 0 0 0 0 0 0 0 0 0 0
0 0 0 0 0 0 0 0 0 0 0 0 0 0 0 0 0 0 0 0 0 0 0 0 0 0 0 0 0 0 0 0
0 0 0 0 0 0 0 0 0 0 0 0 0 0 0 0 0 0 0 0 0 0 0 0 0 0 0 0 0 0 0 0
0 0 0 0 0 0 0 0 0 0 0 0 0 0 0 0 0 0 0 0 0 0 0 0 0 0 0 0 0 0 0 0
0 0 0 0 0 0 0 0 0 0 0 0 0 0 0 0 0 0 0 0 0 0 0 0 0 0 0 0 0 0 0 0
0 0 0 0 0 0 0 0 0 0 0 0 0 0 0 0 0 0 0 0 0 0 0 0 0 0 0 0 0 0 0 0
0 0 0 0 0 0 0 0 0 -0 -0 -0 -0 0 0 0 0 0 0 0 0 0 0 0 0 0 0 0 0 0 0 0
0 0 0 0 -0 -0 -0 -0 -0 -0 -0 -0 -0 0 0 0 0 0 0 0 0 0 0 0 0 0 0 0 0 0 0 0
0 0 0 -0 -0 -0 -0 -0 -0 -0 -0 -0 0 0 0 0 -0 0 0 0 0 0 0 0 0 0 0 0 0 0 0 0
0 0 0 -0 -0 -0 -0 -0 -0 -0 -0 -0 0 0 0 0 0 0 0 0 0 0 0 0 0 0 0 0 0 0 0 0
0 0 -0 -0 -0 -0 -0 -0 -0 -0 -0 -0 0 0 0 0 0 0 0 0 0 0 0 0 0 0 0 0 0 0 0 0
-0 -0 -0 -0 -0 -0 -0 -0 -0 -0 -0 0 0 0 0 0 0 0 0 0 0 0 0 0 0 0 0 0 0 0 0 0
-0 -0 -0 0 -0 0 -0 0 0 -0 -0 -0 0 0 0 0 0 0 0 0 0 0 0 0 0 0 0 0 0 0 0 0
0 0 -0 0 0 0 0 0 0 0 -0 -0 0 0 0 0 0 0 0 0 0 0 0 0 0 0 0 0 0 0 0 0
0 0 0 0 0 0 0 0 0 0 0 0 0 0 0 0 0 0 0 0 0 0 0 0 0 0 0 0 0 0 0 0
-0 -0 0 0 0 0 0 0 0 0 0 0 0 0 0 0 0 0 0 0 0 0 0 0 0 0 0 0 0 0 0 0
0 0 0 0 0 0 0 0 0 0 0 0 0 0 0 0 0 0 0 0 0 0 0 0 0 0 0 0 0 0 0 0
0 0 0 0 0 0 0 0 0 0 0 0 0 0 0 0 0 0 0 0 0 0 0 0 0 0 0 0 0 0 0 0
0 0 0 0 0 0 0 0 0 0 0 0 0 0 0 0 0 0 0 0 0 0 0 0 0 0 0 0 0 0 0 0
0 0 0 0 0 0 0 0 0 0 0 0 -0 -0 0 0 0 0 0 0 0 0 0 0 0 0 0 0 0 0 0 0
Wind_Speed_500mb
27 25 24 24 27 27 31 36 38 37 36 38 41 40 40 43 48 56 64 67 68 71 75 78 78 75 76 81 82 82 87 86
27 27 29 29 31 34 34 39 43 46 47 46 44 45 46 45 43 46 51 60 63 64 67 71 76 77 79 82 83 86 84 84
26 26 29 32 36 41 43 44 47 53 55 53 52 50 50 50 49 44 47 48 56 60 63 67 70 72 77 80 81 84 88 85
29 36 38 39 42 45 46 48 49 52 55 58 60 58 57 55 56 53 50 47 47 50 57 62 67 69 71 75 78 79 81 82
35 40 43 45 48 50 54 56 57 59 61 62 64 64 65 65 64 63 58 55 48 48 52 57 61 67 71 71 71 72 73 73
40 41 45 49 52 52 57 63 63 64 67 68 70 73 71 71 68 66 62 60 58 58 55 57 59 61 63 67 71 73 74 70
37 45 53 61 64 63 66 66 67 67 70 73 76 77 79 78 78 72 67 62 62 61 62 62 60 61 62 62 65 68 71 73
41 54 61 67 70 76 79 80 78 76 73 73 78 81 82 84 80 77 74 68 63 62 66 66 63 60 63 64 69 71 73 75
48 55 62 68 74 79 79 81 84 85 85 77 77 81 82 84 86 81 74 74 73 65 63 69 68 64 62 64 66 71 72 69
48 56 62 67 74 80 83 84 84 84 87 87 81 82 82 83 85 86 78 72 74 70 64 64 66 62 64 62 64 68 68 63
52 57 62 66 72 76 80 84 86 87 88 86 83 80 81 81 83 82 76 73 71 73 64 58 61 56 54 51 53 55 55 59
53 59 62 66 69 72 75 80 85 87 86 83 80 81 77 75 75 75 73 70 68 69 64 57 55 54 51 48 52 52 51 52
55 58 60 62 66 70 73 77 82 86 86 83 78 73 72 71 67 66 66 66 68 67 65 55 51 54 51 49 49 50 55 54
54 56 57 59 62 68 70 75 79 80 82 81 78 68 61 62 59 61 60 62 65 65 63 57 48 51 49 46 45 47 49 48
45 50 54 57 57 61 68 72 75 78 77 74 74 69 58 51 48 51 52 57 61 61 60 55 50 49 49 46 44 47 50 51
44 49 53 56 59 62 66 71 74 76 76 73 68 64 59 49 42 34 34 45 50 58 56 53 50 44 45 45 40 37 38 40
40 45 48 51 53 55 60 65 73 77 76 73 67 61 54 45 33 26 29 35 35 42 36 34 32 31 27 29 25 21 26 32
36 38 41 45 48 52 55 61 66 69 72 69 62 57 52 44 37 32 21 22 22 18 7 14 9 2 3 12 18 18 22 28
30 33 38 41 45 48 52 53 55 58 59 60 58 54 47 42 37 32 31 29 28 23 17 21 19 12 11 6 4 6 10 16
26 29 34 38 41 44 47 48 50 52 54 53 51 49 46 44 44 42 40 39 38 36 31 26 23 18 21 20 25 31 29 26
Wind_Direction_500mb
79 64 50 38 31 23 18 12 4 351 336 324 319 315 315 308 296 279 275 276 273 275 276 277 278 275 271 270 267 267 265 265
68 50 38 28 21 15 5 358 355 353 349 341 325 312 310 312 310 301 287 275 275 274 274 274 275 275 273 271 271 270 269 267
52 35 23 15 9 6 3 359 352 346 344 343 337 325 310 305 307 305 299 288 276 275 273 273 272 272 272 271 272 270 268 268
33 22 15 10 5 2 358 355 351 344 338 334 333 331 325 315 304 302 300 295 287 277 275 275 273 271 271 271 270 270 270 270
18 12 5 3 2 359 355 351 348 345 341 336 329 327 326 323 316 305 299 295 288 280 278 272 270 268 267 268 269 269 271 272
1 359 356 352 352 349 348 346 344 341 339 337 332 327 323 319 317 311 303 293 287 284 274 271 270 272 271 269 270 269 270 270
352 350 348 346 345 342 340 340 338 335 333 331 329 326 324 321 316 314 307 298 288 281 279 280 276 265 260 264 264 264 265 268
345 343 342 341 339 336 335 333 332 330 328 327 324 322 320 319 317 313 310 304 293 283 279 277 276 278 278 262 260 261 262 263
338 337 338 336 332 330 330 329 327 325 323 324 320 317 316 315 314 314 309 306 300 290 282 278 276 275 272 270 264 261 259 260
332 334 333 331 328 327 327 327 325 323 322 323 323 317 314 312 311 311 310 305 301 295 288 283 278 276 274 271 264 262 261 258
335 336 334 333 331 329 328 327 326 325 324 323 322 318 313 310 308 307 308 306 302 295 290 289 287 284 281 277 272 270 266 261
341 345 343 340 335 334 334 330 329 327 325 324 321 317 313 309 305 305 304 305 302 295 291 289 291 290 285 279 274 270 267 264
346 348 346 344 339 338 337 332 330 328 328 326 323 319 314 309 308 307 305 303 300 296 291 288 291 290 289 283 274 270 266 262
351 349 349 349 347 343 341 337 335 332 331 329 326 325 319 313 308 306 305 304 300 297 293 292 292 290 288 284 277 271 269 266
357 360 0 360 357 352 348 345 343 340 338 335 333 332 330 322 319 315 313 308 303 298 295 292 288 286 282 277 277 275 270 265
7 8 6 5 2 357 355 353 352 351 348 346 342 341 339 339 339 325 309 310 310 300 294 293 290 288 285 276 271 269 263 252
15 12 9 7 5 3 3 360 2 0 359 354 349 347 347 347 342 303 314 309 307 312 305 298 293 291 284 274 272 263 243 225
17 14 11 9 8 9 7 5 7 6 7 1 357 355 354 354 347 334 321 353 343 336 5 64 63 99 194 221 225 224 219 213
16 14 13 11 11 12 11 10 9 10 13 13 12 10 8 8 9 9 13 15 21 26 49 85 80 87 110 109 253 171 149 147
14 15 13 12 12 13 11 12 12 13 16 16 20 22 25 28 33 34 34 36 41 47 53 58 72 71 75 78 92 92 95 98
Wind_Speed_850mb
27 25 24 24 27 27 31 36 38 37 36 38 41 40 40 43 48 56 64 67 68 71 75 78 78 75 76 81 82 82 87 86
27 27 29 29 31 34 34 39 43 46 47 46 44 45 46 45 43 46 51 60 63 64 67 71 76 77 79 82 83 86 84 84
26 26 29 32 36 41 43 44 47 53 55 53 52 50 50 50 49 44 47 48 56 60 63 67 70 72 77 80 81 84 88 85
29 36 38 39 42 45 46 48 49 52 55 58 60 58 57 55 56 53 50 47 47 50 57 62 67 69 71 75 78 79 81 82
35 40 43 45 48 50 54 56 57 59 61 62 64 64 65 65 64 63 58 55 48 48 52 57 61 67 71 71 71 72 73 73
40 41 45 49 52 52 57 63 63 64 67 68 70 73 71 71 68 66 62 60 58 58 55 57 59 61 63 67 71 73 74 70
37 45 53 61 64 63 66 66 67 67 70 73 76 77 79 78 78 72 67 62 62 61 62 62 60 61 62 62 65 68 71 73
41 54 61 67 70 76 79 80 78 76 73 73 78 81 82 84 80 77 74 68 63 62 66 66 63 60 63 64 69 71 73 75
48 55 62 68 74 79 79 81 84 85 85 77 77 81 82 84 86 81 74 74 73 65 63 69 68 64 62 64 66 71 72 69
48 56 62 67 74 80 83 84 84 84 87 87 81 82 82 83 85 86 78 72 74 70 64 64 66 62 64 62 64 68 68 63
52 57 62 66 72 76 80 84 86 87 88 86 83 80 81 81 83 82 76 73 71 73 64 58 61 56 54 51 53 55 55 59
53 59 62 66 69 72 75 80 85 87 86 83 80 81 77 75 75 75 73 70 68 69 64 57 55 54 51 48 52 52 51 52
55 58 60 62 66 70 73 77 82 86 86 83 78 73 72 71 67 66 66 66 68 67 65 55 51 54 51 49 49 50 55 54
54 56 57 59 62 68 70 75 79 80 82 81 78 68 61 62 59 61 60 62 65 65 63 57 48 51 49 46 45 47 49 48
45 50 54 57 57 61 68 72 75 78 77 74 74 69 58 51 48 51 52 57 61 61 60 55 50 49 49 46 44 47 50 51
44 49 53 56 59 62 66 71 74 76 76 73 68 64 59 49 42 34 34 45 50 58 56 53 50 44 45 45 40 37 38 40
40 45 48 51 53 55 60 65 73 77 76 73 67 61 54 45 33 26 29 35 35 42 36 34 32 31 27 29 25 21 26 32
36 38 41 45 48 52 55 61 66 69 72 69 62 57 52 44 37 32 21 22 22 18 7 14 9 2 3 12 18 18 22 28
30 33 38 41 45 48 52 53 55 58 59 60 58 54 47 42 37 32 31 29 28 23 17 21 19 12 11 6 4 6 10 16
26 29 34 38 41 44 47 48 50 52 54 53 51 49 46 44 44 42 40 39 38 36 31 26 23 18 21 20 25 31 29 26
Wind_Direction_850mb
79 64 50 38 31 23 18 12 4 351 336 324 319 315 315 308 296 279 275 276 273 275 276 277 278 275 271 270 267 267 265 265
68 50 38 28 21 15 5 358 355 353 349 341 325 312 310 312 310 301 287 275 275 274 274 274 275 275 273 271 271 270 269 267
52 35 23 15 9 6 3 359 352 346 344 343 337 325 310 305 307 305 299 288 276 275 273 273 272 272 272 271 272 270 268 268
33 22 15 10 5 2 358 355 351 344 338 334 333 331 325 315 304 302 300 295 287 277 275 275 273 271 271 271 270 270 270 270
18 12 5 3 2 359 355 351 348 345 341 336 329 327 326 323 316 305 299 295 288 280 278 272 270 268 267 268 269 269 271 272
1 359 356 352 352 349 348 346 344 341 339 337 332 327 323 319 317 311 303 293 287 284 274 271 270 272 271 269 270 269 270 270
352 350 348 346 345 342 340 340 338 335 333 331 329 326 324 321 316 314 307 298 288 281 279 280 276 265 260 264 264 264 265 268
345 343 342 341 339 336 335 333 332 330 328 327 324 322 320 319 317 313 310 304 293 283 279 277 276 278 278 262 260 261 262 263
338 337 338 336 332 330 330 329 327 325 323 324 320 317 316 315 314 314 309 306 300 290 282 278 276 275 272 270 264 261 259 260
332 334 333 331 328 327 327 327 325 323 322 323 323 317 314 312 311 311 310 305 301 295 288 283 278 276 274 271 264 262 261 258
335 336 334 333 331 329 328 327 326 325 324 323 322 318 313 310 308 307 308 306 302 295 290 289 287 284 281 277 272 270 266 261
341 345 343 340 335 334 334 330 329 327 325 324 321 317 313 309 305 305 304 305 302 295 291 289 291 290 285 279 274 270 267 264
346 348 346 344 339 338 337 332 330 328 328 326 323 319 314 309 308 307 305 303 300 296 291 288 291 290 289 283 274 270 266 262
351 349 349 349 347 343 341 337 335 332 331 329 326 325 319 313 308 306 305 304 300 297 293 292 292 290 288 284 277 271 269 266
357 360 0 360 357 352 348 345 343 340 338 335 333 332 330 322 319 315 313 308 303 298 295 292 288 286 282 277 277 275 270 265
7 8 6 5 2 357 355 353 352 351 348 346 342 341 339 339 339 325 309 310 310 300 294 293 290 288 285 276 271 269 263 252
15 12 9 7 5 3 3 360 2 0 359 354 349 347 347 347 342 303 314 309 307 312 305 298 293 291 284 274 272 263 243 225
17 14 11 9 8 9 7 5 7 6 7 1 357 355 354 354 347 334 321 353 343 336 5 64 63 99 194 221 225 224 219 213
16 14 13 11 11 12 11 10 9 10 13 13 12 10 8 8 9 9 13 15 21 26 49 85 80 87 110 109 253 171 149 147
14 15 13 12 12 13 11 12 12 13 16 16 20 22 25 28 33 34 34 36 41 47 53 58 72 71 75 78 92 92 95 98